Flag for U.S.A. Weather past 2 weeks in Olympia, Washington, U.S.A.

Now
53 °F

Clear.


Feels Like: 52 °F
Forecast: 52 / 64 °F
Wind: 5 mph from South

Location: Olympia Airport

Current Time: May 22, 2015 at 2:04:11 AM

Latest Report: May 22, 2015 at 12:54 AM


Visibility: 10 mi

Pressure: 29.92 "Hg

Humidity: 86%

Dew point: 49 °F

Location of OlympiaLocation

Historic Weather in Olympia — Graph

°F

Olympia temperature yesterday

Maximum temperature yesterday: 79 °F (at 3:54 PM)
Minimum temperature yesterday: 50 °F (at 3:54 AM)
Average temperature yesterday: 61 °F

Past Weeks' High & Low Weather Summary

 TemperatureHumidityPressure
High80 °F (May 9, 3:54 PM)100% (May 7, 6:01 AM)30.17 "Hg (May 7, 6:01 AM)
Low36 °F (May 7, 4:54 AM)19% (May 9, 2:54 PM)29.82 "Hg (May 21, 3:54 PM)
Average56 °F74%29.98 "Hg
* Reported May 7 12:54 AM — May 22 12:54 AM, Olympia, Weather by CustomWeather, © 2015

Note: Actual official high and low records may vary slightly from our data, if they occured in-between our weather recording intervals... More about our weather records

Advertising

Olympia weather history for previous 24 hours

 ConditionsComfort  
Time TempWeatherWind HumidityBarometerVisibility
12:54 AM
Fri, May 22
53 °FClear.5 mph86%29.92 "Hg10 mi
11:54 PM
Thu, May 21
54 °FClear.5 mph83%29.91 "Hg10 mi
10:54 PM56 °FClear.3 mph81%29.90 "Hg10 mi
9:54 PM58 °FClear.3 mph75%29.88 "Hg10 mi
8:54 PM62 °FSunny.5 mph67%29.85 "Hg10 mi
7:54 PM67 °FSunny.7 mph59%29.83 "Hg10 mi
6:54 PM71 °FPassing clouds.7 mph49%29.82 "Hg10 mi
5:54 PM74 °FPartly sunny.9 mph46%29.82 "Hg10 mi
4:54 PM75 °FSunny.6 mph47%29.82 "Hg10 mi
3:54 PM79 °FSunny.6 mph41%29.82 "Hg10 mi
2:54 PM78 °FPassing clouds.N/A43%29.83 "Hg10 mi
1:54 PM76 °FSunny.5 mph43%29.85 "Hg10 mi
12:54 PM74 °FSunny.3 mph48%29.86 "Hg10 mi
11:54 AM68 °FSunny.3 mph63%29.88 "Hg10 mi
10:54 AM62 °FSunny.5 mph75%29.89 "Hg10 mi
9:54 AM56 °FLow clouds.6 mph87%29.90 "Hg8 mi
8:54 AM53 °FFog.No wind93%29.90 "Hg2 mi
7:54 AM51 °FFog.No wind96%29.90 "Hg0 mi
6:54 AM50 °FFog.No wind96%29.90 "Hg0 mi
5:54 AM50 °FFog.3 mph96%29.89 "Hg0 mi
5:04 AM50 °FFog.No wind96%29.88 "Hg4 mi
4:54 AM50 °FFog.No wind96%29.88 "Hg6 mi
3:54 AM50 °FFog.No wind96%29.88 "Hg5 mi
2:54 AM52 °FPassing clouds.3 mph93%29.88 "Hg9 mi
Weather by CustomWeather, © 2015

See weather overviewHow to use our weather pages